Location: Sihaung
(22.8641°N, 94.0549°E)
Time: 02:14:24
(UTC+00:00)

Cosmos 962 Rocket - Pass Details

Date: 03 March 2021
Orbit: 951 x 999 km, 83.0° (Epoch: 13 April)

Event Time Altitude Azimuth Distance (km) Brightness Sun altitude
Rises 12:46:56 0° 182° (S) 3,620 7.5 -14.3°
Reaches altitude 10° 12:49:24 10° 182° (S) 2,681 6.8 -14.9°
Maximum altitude 12:55:33 85° 93° (E) 972 4.4 -16.3°
Drops below altitude 10° 13:01:47 10° 6° (N) 2,722 6.8 -17.8°
Sets 13:04:19 0° 6° (N) 3,679 7.5 -18.3°
